Satellite: NOAA-11 Catalog number: 19531 Epoch time: 11313.80229277 Element set: 0693 Inclination: 098.7475 deg RA of node: 038.4706 deg Eccentricity: 0.0011534 Arg of perigee: 129.4122 deg Mean anomaly: 230.8103 deg Mean motion: 14.14935063 rev/day Decay rate: 1.43e-06 rev/day^2 Epoch rev: 19334 Checksum: 279
Satellite: NOAA-12 Catalog number: 21263 Epoch time: 11313.92664436 Element set: 0208 Inclination: 098.7452 deg RA of node: 331.4604 deg Eccentricity: 0.0014496 Arg of perigee: 118.8357 deg Mean anomaly: 241.4279 deg Mean motion: 14.25451806 rev/day Decay rate: 1.34e-06 rev/day^2 Epoch rev: 06517 Checksum: 291
Satellite: MET-3/5 Catalog number: 21655 Epoch time: 11313.91737714 Element set: 255 Inclination: 082.5547 deg RA of node: 307.8073 deg Eccentricity: 0.0013972 Arg of perigee: 148.3234 deg Mean anomaly: 211.8708 deg Mean motion: 13.17031621 rev/day Decay rate: 5.1e-07 rev/day^2 Epoch rev: 97290 Checksum: 289
Satellite: MET-2/21 Catalog number: 22782 Epoch time: 11313.74961160 Element set: 0253 Inclination: 082.5509 deg RA of node: 207.3899 deg Eccentricity: 0.0023726 Arg of perigee: 053.0766 deg Mean anomaly: 307.2594 deg Mean motion: 13.83668243 rev/day Decay rate: 1.0e-07 rev/day^2 Epoch rev: 91868 Checksum: 311
Satellite: OKEAN-4 Catalog number: 23317 Epoch time: 11313.95734696 Element set: 0755 Inclination: 082.5396 deg RA of node: 236.9983 deg Eccentricity: 0.0022257 Arg of perigee: 003.4734 deg Mean anomaly: 356.6630 deg Mean motion: 14.83315585 rev/day Decay rate: 2.437e-05 rev/day^2 Epoch rev: 92215 Checksum: 323
Satellite: NOAA-14 Catalog number: 23455 Epoch time: 11313.96191722 Element set: 0691 Inclination: 098.8449 deg RA of node: 035.0871 deg Eccentricity: 0.0008692 Arg of perigee: 223.8517 deg Mean anomaly: 136.1964 deg Mean motion: 14.13847880 rev/day Decay rate: 1.61e-06 rev/day^2 Epoch rev: 86967 Checksum: 333
Satellite: NOAA-15 Catalog number: 25338 Epoch time: 11313.72677295 Element set: 0015 Inclination: 098.6699 deg RA of node: 297.9891 deg Eccentricity: 0.0011217 Arg of perigee: 033.8715 deg Mean anomaly: 326.3178 deg Mean motion: 14.24978433 rev/day Decay rate: 2.47e-06 rev/day^2 Epoch rev: 70145 Checksum: 333
Satellite: RESURS Catalog number: 25394 Epoch time: 11313.95285196 Element set: 0955 Inclination: 098.3056 deg RA of node: 308.9969 deg Eccentricity: 0.0001605 Arg of perigee: 131.6526 deg Mean anomaly: 228.4792 deg Mean motion: 14.24251937 rev/day Decay rate: 1.16e-06 rev/day^2 Epoch rev: 69305 Checksum: 319
Satellite: FENGYUN1 Catalog number: 25730 Epoch time: 11313.91005755 Element set: 465 Inclination: 098.8292 deg RA of node: 272.0103 deg Eccentricity: 0.0022733 Arg of perigee: 271.6667 deg Mean anomaly: 088.1894 deg Mean motion: 14.09021356 rev/day Decay rate: 2.125e-05 rev/day^2 Epoch rev: 64358 Checksum: 292
Satellite: OKEAN-0 Catalog number: 25860 Epoch time: 11313.99228848 Element set: 0483 Inclination: 097.9047 deg RA of node: 276.5937 deg Eccentricity: 0.0000556 Arg of perigee: 079.4737 deg Mean anomaly: 280.6534 deg Mean motion: 14.73927997 rev/day Decay rate: 1.120e-05 rev/day^2 Epoch rev: 66213 Checksum: 340
Satellite: NOAA-16 Catalog number: 26536 Epoch time: 11313.77113698 Element set: 0496 Inclination: 099.1266 deg RA of node: 347.1704 deg Eccentricity: 0.0010439 Arg of perigee: 347.6606 deg Mean anomaly: 012.4301 deg Mean motion: 14.12665599 rev/day Decay rate: 1.50e-06 rev/day^2 Epoch rev: 57391 Checksum: 307
Satellite: NOAA-17 Catalog number: 27453 Epoch time: 11313.73355991 Element set: 0480 Inclination: 098.3636 deg RA of node: 346.6438 deg Eccentricity: 0.0012709 Arg of perigee: 083.1426 deg Mean anomaly: 277.1199 deg Mean motion: 14.24341701 rev/day Decay rate: 1.53e-06 rev/day^2 Epoch rev: 48737 Checksum: 315
Satellite: NOAA-18 Catalog number: 28654 Epoch time: 11313.76962146 Element set: 0957 Inclination: 099.0154 deg RA of node: 265.4022 deg Eccentricity: 0.0014979 Arg of perigee: 057.0072 deg Mean anomaly: 303.2520 deg Mean motion: 14.11547208 rev/day Decay rate: 5.19e-06 rev/day^2 Epoch rev: 33346 Checksum: 297
Satellite: NOAA-19 Catalog number: 33591 Epoch time: 11313.79907159 Element set: 0148 Inclination: 098.8408 deg RA of node: 251.5910 deg Eccentricity: 0.0013367 Arg of perigee: 285.9054 deg Mean anomaly: 074.0642 deg Mean motion: 14.11237486 rev/day Decay rate: 3.88e-06 rev/day^2 Epoch rev: 14192 Checksum: 319
/EX SB KEPS @ AMSAT $ORB11314.M Orbital Elements 11314.MISC
HR AMSAT ORBITAL ELEMENTS FOR MANNED AND MISCELLANEOUS SATELLITES FROM WA5QGD FORT WORTH,TX November 10, 2011 Send Subscribe/unsubscribe to KEPS at http://www.amsat.org/mailman/listinfo/keps BID: ORB11314.M TO ALL RADIO AMATEURS BT
Satellite: HUBBLE Catalog number: 20580 Epoch time: 11313.95063566 Element set: 884 Inclination: 028.4689 deg RA of node: 144.0809 deg Eccentricity: 0.0003298 Arg of perigee: 231.7151 deg Mean anomaly: 128.3185 deg Mean motion: 15.01768669 rev/day Decay rate: 2.986e-05 rev/day^2 Epoch rev: 98158 Checksum: 330
Satellite: ISS Catalog number: 25544 Epoch time: 11314.94560883 Element set: 409 Inclination: 051.6398 deg RA of node: 142.1044 deg Eccentricity: 0.0021799 Arg of perigee: 044.4356 deg Mean anomaly: 069.1254 deg Mean motion: 15.59947707 rev/day Decay rate: 2.8742e-04 rev/day^2 Epoch rev: 74382 Checksum: 323
Satellite: CO-58 Catalog number: 28895 Epoch time: 11313.68325273 Element set: 19 Inclination: 097.9438 deg RA of node: 184.2735 deg Eccentricity: 0.0018906 Arg of perigee: 122.2785 deg Mean anomaly: 238.0273 deg Mean motion: 14.60282315 rev/day Decay rate: 1.531e-05 rev/day^2 Epoch rev: 32147 Checksum: 314
Satellite: FALCON Catalog number: 30776 Epoch time: 11314.78938704 Element set: 212 Inclination: 035.4303 deg RA of node: 175.1458 deg Eccentricity: 0.0003056 Arg of perigee: 298.2448 deg Mean anomaly: 061.7972 deg Mean motion: 15.05594164 rev/day Decay rate: 7.638e-05 rev/day^2 Epoch rev: 25714 Checksum: 307
Satellite: MAST Catalog number: 31126 Epoch time: 11313.94739849 Element set: 0312 Inclination: 097.8870 deg RA of node: 332.8718 deg Eccentricity: 0.0095311 Arg of perigee: 076.7329 deg Mean anomaly: 284.4478 deg Mean motion: 14.53879137 rev/day Decay rate: 1.102e-05 rev/day^2 Epoch rev: 24226 Checksum: 318
Satellite: CAPE1 Catalog number: 31130 Epoch time: 11313.86140822 Element set: 0318 Inclination: 097.8914 deg RA of node: 329.3589 deg Eccentricity: 0.0103365 Arg of perigee: 088.8070 deg Mean anomaly: 272.4970 deg Mean motion: 14.52561091 rev/day Decay rate: 1.127e-05 rev/day^2 Epoch rev: 24178 Checksum: 293
Satellite: COMPASS Catalog number: 32787 Epoch time: 11314.66390859 Element set: 141 Inclination: 097.8332 deg RA of node: 015.6477 deg Eccentricity: 0.0016592 Arg of perigee: 060.2658 deg Mean anomaly: 300.0223 deg Mean motion: 14.82951681 rev/day Decay rate: 4.433e-05 rev/day^2 Epoch rev: 19126 Checksum: 297
Satellite: AAUSAT2 Catalog number: 32788 Epoch time: 11314.74284856 Element set: 132 Inclination: 097.8343 deg RA of node: 015.9991 deg Eccentricity: 0.0016326 Arg of perigee: 061.5381 deg Mean anomaly: 298.7501 deg Mean motion: 14.83182836 rev/day Decay rate: 5.220e-05 rev/day^2 Epoch rev: 19129 Checksum: 315
Satellite: DO-64 Catalog number: 32789 Epoch time: 11313.75141274 Element set: 0148 Inclination: 097.8426 deg RA of node: 016.3398 deg Eccentricity: 0.0015913 Arg of perigee: 061.4040 deg Mean anomaly: 298.8783 deg Mean motion: 14.83959166 rev/day Decay rate: 7.793e-05 rev/day^2 Epoch rev: 19116 Checksum: 342
Satellite: CO-66 Catalog number: 32791 Epoch time: 11313.83663712 Element set: 0137 Inclination: 097.8354 deg RA of node: 014.7227 deg Eccentricity: 0.0017039 Arg of perigee: 062.4609 deg Mean anomaly: 297.8314 deg Mean motion: 14.82546897 rev/day Decay rate: 3.461e-05 rev/day^2 Epoch rev: 19108 Checksum: 326
Satellite: RS-30 Catalog number: 32953 Epoch time: 11314.63712874 Element set: 245 Inclination: 082.5010 deg RA of node: 071.6643 deg Eccentricity: 0.0019655 Arg of perigee: 068.9842 deg Mean anomaly: 291.3338 deg Mean motion: 12.43016869 rev/day Decay rate: 1.0e-07 rev/day^2 Epoch rev: 15728 Checksum: 294
Satellite: TACSAT-3 Catalog number: 35001 Epoch time: 11313.61485440 Element set: 0757 Inclination: 040.4523 deg RA of node: 005.6956 deg Eccentricity: 0.0012343 Arg of perigee: 207.9902 deg Mean anomaly: 152.0257 deg Mean motion: 15.57874196 rev/day Decay rate: 7.6419e-04 rev/day^2 Epoch rev: 13968 Checksum: 300
Satellite: PHARMSAT Catalog number: 35002 Epoch time: 11313.54875955 Element set: 0700 Inclination: 040.4708 deg RA of node: 005.4292 deg Eccentricity: 0.0016065 Arg of perigee: 225.9561 deg Mean anomaly: 133.9933 deg Mean motion: 15.55404600 rev/day Decay rate: 5.5006e-04 rev/day^2 Epoch rev: 13968 Checksum: 278
Satellite: HAWKSAT1 Catalog number: 35003 Epoch time: 11276.79285837 Element set: 811 Inclination: 040.4398 deg RA of node: 174.3672 deg Eccentricity: 0.0011414 Arg of perigee: 274.3918 deg Mean anomaly: 085.3844 deg Mean motion: 16.13812532 rev/day Decay rate: 2.274821e-02 rev/day^2 Epoch rev: 13457 Checksum: 306
Satellite: CP6 Catalog number: 35004 Epoch time: 11247.64656856 Element set: 784 Inclination: 040.4403 deg RA of node: 342.9642 deg Eccentricity: 0.0002956 Arg of perigee: 038.0069 deg Mean anomaly: 322.2231 deg Mean motion: 16.41039951 rev/day Decay rate: 1.6152067e-01 rev/day^2 Epoch rev: 13013 Checksum: 285
Satellite: METEOR-M Catalog number: 35865 Epoch time: 11314.73442572 Element set: 887 Inclination: 098.6881 deg RA of node: 007.8219 deg Eccentricity: 0.0002539 Arg of perigee: 347.3117 deg Mean anomaly: 012.7995 deg Mean motion: 14.21845419 rev/day Decay rate: 2.8e-07 rev/day^2 Epoch rev: 11141 Checksum: 307
